Overview Statistics Trail Chart Weather Telemetry Raw packets
 

This is the latest recevied weather packets stored in our database for station/object KM8V-8. If no packets are shown the sender has not sent any weather packets the latest 10 day(s).

<< 41 42 43 44 45 46 47 >>
Time Temp. Humidity Pressure Rain* Wind** Luminosity Snow
1777488921 9.44° C 99% 1009 hPa 0 mm - 100 W/m² -
1777488621 9.44° C 99% 1009 hPa 0 mm - 116 W/m² -
1777488321 8.89° C 99% 1009.1 hPa 0 mm - 123 W/m² -
1777488022 8.89° C 99% 1009.1 hPa 0 mm - 97 W/m² -
1777487722 8.89° C 99% 1009.3 hPa 0 mm - 119 W/m² -
1777487421 8.89° C 99% 1009.3 hPa 0 mm - 109 W/m² -
1777487122 8.89° C 99% 1009.3 hPa 0 mm - 108 W/m² -
1777486821 9.44° C 99% 1009.2 hPa 0 mm - 130 W/m² -
1777486522 9.44° C 99% 1009.2 hPa 0 mm - 140 W/m² -
1777486228 9.44° C 99% 1009.3 hPa 0 mm - 116 W/m² -
1777485922 9.44° C 99% 1009.3 hPa 0 mm - 77 W/m² -
1777485629 10° C 99% 1009.2 hPa 0 mm - 79 W/m² -
1777485322 10° C 99% 1009.1 hPa 0 mm - 114 W/m² -
1777485022 10° C 99% 1009 hPa 0.25 mm - 137 W/m² -
1777484722 10° C 99% 1008.8 hPa 0.25 mm - 184 W/m² -
1777484428 10° C 99% 1009 hPa 0.25 mm - 180 W/m² -
1777484120 10° C 99% 1009.1 hPa 0.25 mm - 206 W/m² -
1777483822 10° C 99% 1009 hPa 0.25 mm - 254 W/m² -
1777483523 10° C 100% 1009.1 hPa 0.25 mm - 218 W/m² -
1777483222 10° C 100% 1009.1 hPa 0.25 mm - 282 W/m² -
1777482922 10° C 99% 1009.2 hPa 0.25 mm - 246 W/m² -
1777482629 10.56° C 99% 1009.2 hPa 0.25 mm - 183 W/m² -
1777482329 10.56° C 100% 1009.1 hPa 0.51 mm - 178 W/m² -
1777482029 10° C 100% 1009.2 hPa 0.51 mm - 309 W/m² -
1777481729 10° C 100% 1009.1 hPa 1.02 mm - 203 W/m² -

* Rain latest hour (hover to see other rain measurements)
** Current wind speed in m/s (hover to see current wind gust speed)